Weather History for Alliance, NE

Change the Weather History Date:

Thursday, February 21, 2013

  Actual Average Record
Temperature  
Mean Temperature 17 °F 28 °F  
Max Temperature 22 °F 43 °F 70 °F (1982)
Min Temperature 11 °F 14 °F -9 °F (2006)
Degree Days  
Heating Degree Days 48 37  
Month to date heating degree days 784 814  
Since 1 July heating degree days 4853 5159  
Cooling Degree Days 0 0  
Month to date cooling degree days 0 0  
Year to date cooling degree days 0 0  
Moisture  
Dew Point 13 °F    
Average Humidity 80    
Maximum Humidity 92    
Minimum Humidity 68    
Precipitation  
Precipitation T in 0.02 in 0.35 in (1957)
Month to date precipitation T 0.29  
Year to date precipitation 0.22 0.47  
Sea Level Pressure  
Sea Level Pressure 29.91 in    
Wind  
Wind Speed 7 mph (East)    
Max Wind Speed 20 mph    
Max Gust Speed 23 mph    
Visibility 5 miles    
Events Snow    
T = Trace of Precipitation, MM = Missing Value Source: NWS Daily Summary

Daily Weather History Graph

Daily Weather History Graph

Search for Another Location

Airport:

Trip Planner

Search our weather history database for the weather conditions in past years. The results will help you decide how hot, cold, wet, or windy it might be!

Date:

Astronomy

Feb. 21, 2013 Rise Set
Actual Time 6:38 AM MST 5:31 PM MST
Civil Twilight 6:09 AM MST 6:00 PM MST
Nautical Twilight 5:37 AM MST 6:32 PM MST
Astronomical Twilight 5:05 AM MST 7:05 PM MST
Moon 1:46 PM MST (2/21) 3:47 AM MST (2/21)
Length of Visible Light 11h 50m
Length of Day
10h 53m
Waxing Gibbous, 84% of the Moon is Illuminated
Feb 21
Waxing Gibbous
Feb 25
Full
Mar 4
Last Quarter
Mar 11
New
Mar 19
First Quarter

Hourly Weather History & Observations

Time (MST) Temp. Windchill Dew Point Humidity Pressure Visibility Wind Dir Wind Speed Gust Speed Precip Events Conditions
12:05 AM 19.4 °F 5.0 °F 15.8 °F 86% 29.83 in 6.0 mi SE 16.1 mph - 0.00 in Snow Light Snow
12:53 AM 19.0 °F 7.5 °F 15.1 °F 85% 29.96 in 10.0 mi SSE 10.4 mph - 0.00 in   Overcast
1:11 AM 19.4 °F 8.6 °F 15.8 °F 86% 29.83 in 1.8 mi SSE 9.2 mph - 0.00 in Snow Light Snow
1:19 AM 19.4 °F 7.9 °F 15.8 °F 86% 29.83 in 3.0 mi SSE 10.4 mph - 0.00 in Snow Light Snow
1:46 AM 19.4 °F 9.5 °F 15.8 °F 86% 29.82 in 2.0 mi SE 8.1 mph - 0.00 in Snow Light Snow
1:53 AM 19.0 °F 6.8 °F 15.1 °F 85% 29.95 in 1.8 mi SSE 11.5 mph - 0.00 in Snow Light Snow
2:15 AM 19.4 °F 8.6 °F 15.8 °F 86% 29.81 in 2.0 mi SE 9.2 mph - 0.00 in Snow Light Snow
2:24 AM 17.6 °F 5.7 °F 15.8 °F 93% 29.81 in 2.0 mi SE 10.4 mph - 0.00 in Snow Light Snow
2:53 AM 17.1 °F 5.8 °F 12.9 °F 84% 29.95 in 3.0 mi SE 9.2 mph - 0.00 in Snow Light Snow
3:21 AM 14.0 °F 6.5 °F 10.4 °F 86% 29.81 in 10.0 mi ESE 4.6 mph - 0.00 in   Scattered Clouds
3:53 AM 14.0 °F 5.1 °F 10.9 °F 88% 29.96 in 10.0 mi East 5.8 mph - 0.00 in   Overcast
4:53 AM 16.0 °F 2.9 °F 12.0 °F 84% 29.98 in 9.0 mi ESE 11.5 mph - 0.00 in Snow Light Snow
5:23 AM 15.8 °F 6.1 °F 10.4 °F 79% 29.84 in 10.0 mi East 6.9 mph - 0.00 in   Overcast
5:53 AM 15.1 °F 3.3 °F 10.9 °F 84% 30.00 in 8.0 mi ESE 9.2 mph - 0.00 in Snow Light Snow
6:34 AM 15.8 °F 6.1 °F 10.4 °F 79% 29.85 in 2.5 mi ESE 6.9 mph - 0.00 in Snow Light Snow
6:45 AM 15.8 °F 6.1 °F 12.2 °F 86% 29.85 in 1.2 mi ESE 6.9 mph - 0.00 in Snow Light Snow
6:53 AM 15.1 °F 6.4 °F 12.0 °F 88% 30.00 in 1.2 mi ESE 5.8 mph - 0.00 in Snow Light Snow
7:01 AM 15.8 °F 8.6 °F 10.4 °F 79% 29.86 in 1.8 mi ESE 4.6 mph - 0.00 in Snow Light Snow
7:09 AM 15.8 °F 7.2 °F 12.2 °F 86% 29.86 in 2.0 mi ESE 5.8 mph - 0.00 in Snow Light Snow
7:28 AM 15.8 °F 6.1 °F 12.2 °F 86% 29.87 in 3.0 mi ESE 6.9 mph - 0.00 in Snow Light Snow
7:36 AM 15.8 °F 5.1 °F 12.2 °F 86% 29.88 in 2.0 mi ESE 8.1 mph - 0.00 in Snow Light Snow
7:53 AM 16.0 °F 6.3 °F 12.0 °F 84% 30.02 in 1.5 mi ESE 6.9 mph - 0.00 in Snow Light Snow
8:12 AM 15.8 °F 5.1 °F 10.4 °F 79% 29.88 in 1.5 mi ESE 8.1 mph - 0.00 in Snow Light Snow
8:16 AM 15.8 °F 4.2 °F 12.2 °F 86% 29.88 in 1.0 mi ESE 9.2 mph - 0.00 in Snow Light Snow
8:26 AM 15.8 °F 6.1 °F 10.4 °F 79% 29.88 in 0.8 mi SE 6.9 mph - 0.00 in Snow Light Snow
8:36 AM 15.8 °F 6.1 °F 12.2 °F 86% 29.88 in 1.0 mi ESE 6.9 mph - 0.00 in Snow Light Snow
8:49 AM 15.8 °F 5.1 °F 12.2 °F 86% 29.88 in 1.5 mi ESE 8.1 mph - 0.00 in Snow Light Snow
8:53 AM 17.1 °F 7.6 °F 12.0 °F 81% 30.03 in 2.0 mi ESE 6.9 mph - 0.00 in Snow Light Snow
9:03 AM 17.6 °F 7.3 °F 12.2 °F 79% 29.89 in 3.0 mi ESE 8.1 mph - 0.00 in Snow Light Snow
9:53 AM 18.0 °F 12.7 °F 12.0 °F 78% 30.02 in 9.0 mi SE 3.5 mph - 0.00 in   Overcast
10:03 AM 17.6 °F 12.3 °F 12.2 °F 79% 29.87 in 9.0 mi Variable 3.5 mph - 0.00 in Snow Light Snow
10:53 AM 19.4 °F 14.3 °F 12.2 °F 74% 29.87 in 3.0 mi Variable 3.5 mph - N/A Snow Light Snow
11:53 AM 21.0 °F 12.4 °F 12.0 °F 68% 29.98 in 10.0 mi North 6.9 mph - 0.00 in   Mostly Cloudy
12:10 PM 21.2 °F 13.6 °F 12.2 °F 68% 29.85 in 10.0 mi North 5.8 mph - N/A   Scattered Clouds
12:23 PM 21.2 °F 13.6 °F 12.2 °F 68% 29.85 in 10.0 mi North 5.8 mph - N/A   Mostly Cloudy
12:53 PM 21.0 °F 13.4 °F 12.9 °F 71% 29.96 in 10.0 mi North 5.8 mph - N/A   Overcast
1:11 PM 21.2 °F 10.9 °F 14.0 °F 74% 29.83 in 4.0 mi NE 9.2 mph - 0.00 in Snow Light Snow
1:53 PM 21.9 °F 11.7 °F 15.1 °F 75% 29.94 in 6.0 mi NE 9.2 mph - 0.00 in Snow Light Snow
2:53 PM 21.0 °F 9.9 °F 14.0 °F 74% 29.96 in 6.0 mi NE 10.4 mph - 0.00 in Snow Light Snow
3:53 PM 21.0 °F 9.3 °F 14.0 °F 74% 29.98 in 4.0 mi NNE 11.5 mph - 0.00 in Snow Light Snow
4:24 PM 19.4 °F 8.6 °F 14.0 °F 80% 29.84 in 3.0 mi NE 9.2 mph - 0.00 in Snow Light Snow
4:38 PM 19.4 °F 10.4 °F 15.8 °F 86% 29.84 in 2.0 mi NE 6.9 mph - 0.00 in Snow Light Snow
4:53 PM 19.9 °F 10.1 °F 15.1 °F 81% 29.99 in 1.8 mi NE 8.1 mph - 0.00 in Snow Light Snow
4:57 PM 19.4 °F 10.4 °F 15.8 °F 86% 29.85 in 1.2 mi NNE 6.9 mph - N/A Snow Light Snow
5:19 PM 19.4 °F 10.4 °F 15.8 °F 86% 29.85 in 1.0 mi NNE 6.9 mph - 0.00 in Snow Light Snow
5:34 PM 19.4 °F 7.9 °F 14.0 °F 80% 29.85 in 1.2 mi NNE 10.4 mph - 0.00 in Snow Light Snow
5:53 PM 18.0 °F 8.7 °F 15.1 °F 88% 30.00 in 2.5 mi North 6.9 mph - 0.00 in Snow Light Snow
6:13 PM 17.6 °F 8.2 °F 14.0 °F 86% 29.86 in 3.0 mi NNE 6.9 mph - 0.00 in Snow Light Snow
6:53 PM 17.1 °F 8.7 °F 14.0 °F 88% 30.01 in 5.0 mi North 5.8 mph - 0.00 in Snow Light Snow
7:41 PM 17.6 °F 8.2 °F 12.2 °F 79% 29.87 in 8.0 mi NNE 6.9 mph - 0.00 in Snow Light Snow
7:53 PM 16.0 °F 7.4 °F 12.9 °F 88% 30.02 in 9.0 mi North 5.8 mph - 0.00 in   Mostly Cloudy
8:23 PM 15.8 °F 8.6 °F 12.2 °F 86% 29.87 in 10.0 mi North 4.6 mph - 0.00 in   Overcast
8:53 PM 14.0 °F 8.2 °F 10.4 °F 86% 29.87 in 10.0 mi NNE 3.5 mph - N/A   Overcast
9:03 PM 12.2 °F - 10.4 °F 92% 29.87 in 10.0 mi Calm Calm - 0.00 in Snow Light Snow
9:27 PM 12.2 °F - 10.4 °F 92% 29.88 in 10.0 mi Calm Calm - 0.00 in   Mostly Cloudy
9:53 PM 10.9 °F 4.7 °F 9.0 °F 92% 30.04 in 10.0 mi West 3.5 mph - 0.00 in   Overcast
10:53 PM 14.0 °F - 10.9 °F 88% 30.02 in 9.0 mi Calm Calm - 0.00 in Snow Light Snow
11:53 PM 14.0 °F 8.2 °F 10.0 °F 84% 30.01 in 10.0 mi NW 3.5 mph - 0.00 in   Overcast